Home   Weather   Riyadh   Past weeks
Flag for Saudi Arabia

Past Weather in Riyadh, Saudi Arabia — Yesterday and Last 2 Weeks

Now
75 °F

Clear.


Feels Like: 77 °F
Forecast: 95 / 70 °F
Wind: 3 mph from Southeast

Location: King Khaled International Airport

Current Time: Oct 22, 2019 at 2:26:20 am

Latest Report: Oct 22, 2019 at 2:00 am


Visibility: 10 mi

Pressure: 29.95 "Hg (27.99 "Hg at 590m altitude)

Humidity: 31%

Dew Point: 43 °F

Location of RiyadhLocation

Past Weather in Riyadh — Graph

°F

Riyadh Temperature Yesterday

Maximum temperature yesterday: 97 °F (at 3:00 pm)
Minimum temperature yesterday: 66 °F (at 6:00 am)
Average temperature yesterday: 83 °F

High & Low Weather Summary for the Past Weeks

 TemperatureHumidityPressure
High100 °F (Oct 7, 1:00 pm)74% (Oct 8, 5:00 am)30.15 "Hg (Oct 8, 5:00 am)
Low66 °F (Oct 21, 6:00 am)9% (Oct 18, 1:00 pm)29.86 "Hg (Oct 7, 2:00 am)
Average85 °F29%30.03 "Hg
* Reported Oct 7 1:00 am — Oct 22 1:00 am, Riyadh. Weather by CustomWeather, © 2019

Note: Actual official high and low records may vary slightly from our data, if they occured in-between our weather recording intervals... More about our weather records

Advertising

Riyadh Weather History for the Previous 24 Hours

Scroll right to see more
 ConditionsComfort  
Time TempWeatherWind HumidityBarometerVisibility
1:00 am
Tue, Oct 22
75 °FClear.3 mph31%29.95 "Hg10 mi
12:00 am77 °FClear.3 mph30%29.98 "Hg10 mi
11:00 pm
Mon, Oct 21
79 °FClear.3 mph28%29.98 "Hg10 mi
10:00 pm81 °FClear.3 mph28%29.98 "Hg10 mi
9:00 pm84 °FClear.5 mph25%29.98 "Hg10 mi
8:00 pm84 °FClear.5 mph23%29.98 "Hg10 mi
7:00 pm86 °FClear.3 mph24%29.98 "Hg10 mi
6:00 pm84 °FClear.2 mph31%29.98 "Hg10 mi
5:00 pm93 °FSunny.2 mph23%29.95 "Hg10 mi
4:00 pm95 °FSunny.6 mph15%29.95 "Hg10 mi
3:00 pm97 °FSunny.3 mph19%29.95 "Hg10 mi
2:00 pm95 °FSunny.8 mph14%29.98 "Hg10 mi
1:00 pm95 °FSunny.6 mph16%29.98 "Hg10 mi
12:00 pm95 °FSunny.6 mph16%30.01 "Hg10 mi
11:00 am93 °FSunny.9 mph16%30.04 "Hg10 mi
10:00 am91 °FClear.7 mph18%30.07 "Hg6 mi
9:00 am88 °FClear.3 mph25%30.07 "Hg6 mi
8:00 am81 °FSunny.No wind37%30.07 "Hg10 mi
7:00 am72 °FSunny.No wind41%30.07 "Hg10 mi
6:00 am66 °FSunny.No wind46%30.04 "Hg10 mi
5:00 am68 °FClear.No wind43%30.04 "Hg10 mi
4:00 am70 °FClear.No wind40%30.01 "Hg10 mi
3:00 am70 °FClear.2 mph40%30.01 "Hg10 mi
2:00 am72 °FClear.No wind41%30.01 "Hg10 mi
Weather by CustomWeather, © 2019

See weather overview